K6OUA-11 Weather Reports


time (UTC)temp
C
wind
direction
speed
KPH
gust
KPH
rain 1hr
cm
rain 24hr
cm
rain mn
cm
humidity
%
barometer
mb
20260503060148 15 267 0.0 0.0 0.00 0.00 0.00 91
20260503054735 15 267 0.0 0.0 0.00 0.00 0.00 91
20260503054533 15 267 0.0 0.0 0.00 0.00 0.00 91
20260503054129 15 267 0.0 0.0 0.00 0.00 0.00 91
20260503053927 15 267 0.0 0.0 0.00 0.00 0.00 91
20260503053725 15 267 0.0 0.0 0.00 0.00 0.00 91
20260503053523 15 267 0.0 0.0 0.00 0.00 0.00 91
20260503053120 15 267 0.0 0.0 0.00 0.00 0.00 91
20260503052716 15 267 0.0 0.0 0.00 0.00 0.00 90
20260503052514 15 267 0.0 0.0 0.00 0.00 0.00 90
20260503052310 15 267 0.0 0.0 0.00 0.00 0.00 90
20260503051908 15 267 0.0 0.0 0.00 0.00 0.00 90
20260503051504 15 267 0.0 0.0 0.00 0.00 0.00 90
20260503051302 15 267 0.0 0.0 0.00 0.00 0.00 90
20260503051101 15 267 0.0 0.0 0.00 0.00 0.00 90
20260503050859 15 267 0.0 0.0 0.00 0.00 0.00 90
20260503050454 15 267 0.0 0.0 0.00 0.00 0.00 90
20260503050253 15 267 0.0 0.0 0.00 0.00 0.00 90
20260503050051 15 267 0.0 0.0 0.00 0.00 0.00 90
20260503045849 15 267 0.0 0.0 0.00 0.00 0.00 90
20260503045445 15 267 0.0 0.0 0.00 0.00 0.00 90
20260503045244 15 267 0.0 0.0 0.00 0.00 0.00 90
20260503045042 15 267 0.0 0.0 0.00 0.00 0.00 90
20260503044840 15 267 0.0 0.0 0.00 0.00 0.00 90
20260503044642 15 267 0.0 0.0 0.00 0.00 0.00 90
20260503044436 15 267 0.0 0.0 0.00 0.00 0.00 90
20260503044234 15 267 0.0 0.0 0.00 0.00 0.00 90
20260503044030 15 267 0.0 0.0 0.00 0.00 0.00 90
20260503043830 15 267 0.0 0.0 0.00 0.00 0.00 90
20260503043628 15 267 0.0 0.0 0.00 0.00 0.00 90
20260503043426 15 267 0.0 0.0 0.00 0.00 0.00 90
20260503043224 15 267 0.0 0.0 0.00 0.00 0.00 90
20260503043022 15 267 0.0 0.0 0.00 0.00 0.00 90
20260503042821 15 267 0.0 0.0 0.00 0.00 0.00 90
20260503042415 15 267 0.0 0.0 0.00 0.00 0.00 90
20260503042013 15 267 0.0 0.0 0.00 0.00 0.00 90
20260503041811 15 267 0.0 0.0 0.00 0.00 0.00 90
20260503041609 15 267 0.0 0.0 0.00 0.00 0.00 90
20260503041205 15 267 0.0 0.0 0.00 0.00 0.00 90
20260503041003 15 267 0.0 0.0 0.00 0.00 0.00 90
20260503040800 15 267 0.0 0.0 0.00 0.00 0.00 90
20260503040600 15 267 0.0 0.0 0.00 0.00 0.00 89
20260503040358 15 267 0.0 0.0 0.00 0.00 0.00 90
20260503035348 15 281 4.8 8.0 0.00 0.00 0.00 90
20260503035146 15 288 3.2 11.3 0.00 0.00 0.00 90
20260503034944 15 293 6.4 11.3 0.00 0.00 0.00 90
20260503034540 15 275 8.0 11.3 0.00 0.00 0.00 90
20260503033935 15 284 6.4 11.3 0.00 0.00 0.00 89
20260503033531 15 286 3.2 12.9 0.00 0.00 0.00 88
20260503033329 15 275 8.0 12.9 0.00 0.00 0.00 88
20260503033127 15 281 9.7 12.9 0.00 0.00 0.00 88
20260503032925 15 268 8.0 12.9 0.00 0.00 0.00 88
20260503032723 15 278 9.7 14.5 0.00 0.00 0.00 88
20260503032520 15 284 9.7 14.5 0.00 0.00 0.00 88
20260503032116 15 277 12.9 12.9 0.00 0.00 0.00 87
20260503031914 15 267 11.3 12.9 0.00 0.00 0.00 87
20260503031714 15 293 4.8 16.1 0.00 0.00 0.00 86
20260503031512 15 270 9.7 16.1 0.00 0.00 0.00 86
20260503031308 15 270 9.7 16.1 0.00 0.00 0.00 86
20260503031108 15 279 11.3 16.1 0.00 0.00 0.00 85
20260503030906 15 281 11.3 16.1 0.00 0.00 0.00 86
20260503030704 16 274 14.5 14.5 0.00 0.00 0.00 85
20260503030503 16 270 9.7 14.5 0.00 0.00 0.00 85
20260503030259 16 267 11.3 14.5 0.00 0.00 0.00 85
20260503030059 16 291 11.3 14.5 0.00 0.00 0.00 84
20260503025857 16 284 12.9 14.5 0.00 0.00 0.00 84
20260503025655 16 282 9.7 16.1 0.00 0.00 0.00 84
20260503025451 16 277 11.3 16.1 0.00 0.00 0.00 84
20260503025251 16 268 12.9 14.5 0.00 0.00 0.00 83
20260503025049 16 260 14.5 14.5 0.00 0.00 0.00 83
20260503024847 16 264 12.9 14.5 0.00 0.00 0.00 82
20260503024644 16 275 12.9 14.5 0.00 0.00 0.00 82
20260503024444 16 272 9.7 14.5 0.00 0.00 0.00 82
20260503024242 16 271 11.3 14.5 0.00 0.00 0.00 82
20260503024039 16 274 11.3 14.5 0.00 0.00 0.00 81
20260503023836 16 284 9.7 14.5 0.00 0.00 0.00 81
20260503023434 17 270 9.7 14.5 0.00 0.00 0.00 80
20260503023230 17 277 9.7 14.5 0.00 0.00 0.00 80
20260503023030 17 260 12.9 14.5 0.00 0.00 0.00 79
20260503022828 17 253 12.9 14.5 0.00 0.00 0.00 79
20260503022626 17 272 9.7 16.1 0.00 0.00 0.00 78
20260503022425 17 286 11.3 16.1 0.00 0.00 0.00 78
20260503022223 17 293 11.3 12.9 0.00 0.00 0.00 77
20260503022021 17 279 9.7 12.9 0.00 0.00 0.00 76
20260503021817 18 281 6.4 14.5 0.00 0.00 0.00 76
20260503021615 18 271 8.0 14.5 0.00 0.00 0.00 76
20260503021213 18 261 11.3 14.5 0.00 0.00 0.00 75
20260503021011 18 295 11.3 14.5 0.00 0.00 0.00 75
20260503020809 18 292 11.3 14.5 0.00 0.00 0.00 74
20260503020607 18 279 8.0 14.5 0.00 0.00 0.00 73
20260503020404 18 275 11.3 14.5 0.00 0.00 0.00 73
20260503020204 18 277 6.4 14.5 0.00 0.00 0.00 72
20260503020002 18 278 9.7 14.5 0.00 0.00 0.00 72
20260503015800 19 282 4.8 14.5 0.00 0.00 0.00 72
20260503015356 19 265 9.7 14.5 0.00 0.00 0.00 71
20260503014952 19 279 9.7 16.1 0.00 0.00 0.00 70
20260503014750 19 298 6.4 12.9 0.00 0.00 0.00 70
20260503014548 20 265 6.4 12.9 0.00 0.00 0.00 69
20260503013942 20 267 6.4 12.9 0.00 0.00 0.00 68
20260503013538 20 251 4.8 14.5 0.00 0.00 0.00 68
20260503013337 20 272 9.7 14.5 0.00 0.00 0.00 67
20260503013135 20 268 9.7 14.5 0.00 0.00 0.00 67
20260503012933 20 260 8.0 14.5 0.00 0.00 0.00 67
20260503012529 20 262 12.9 14.5 0.00 0.00 0.00 66
20260503012327 20 264 11.3 14.5 0.00 0.00 0.00 66
20260503011924 20 267 8.0 16.1 0.00 0.00 0.00 66
20260503011520 20 271 9.7 17.7 0.00 0.00 0.00 66
20260503011115 20 286 11.3 19.3 0.00 0.00 0.00 67
20260503010914 20 258 17.7 19.3 0.00 0.00 0.00 65
20260503010711 20 268 12.9 16.1 0.00 0.00 0.00 65
20260503010510 20 268 9.7 16.1 0.00 0.00 0.00 65
20260503010308 20 277 11.3 19.3 0.00 0.00 0.00 65
20260503010106 21 277 14.5 19.3 0.00 0.00 0.00 65
20260503005904 21 240 4.8 19.3 0.00 0.00 0.00 65
20260503005702 21 257 16.1 17.7 0.00 0.00 0.00 63
20260503005500 21 248 17.7 17.7 0.00 0.00 0.00 63
20260503005258 21 260 8.0 16.1 0.00 0.00 0.00 63
20260503005056 21 254 16.1 16.1 0.00 0.00 0.00 63
20260503004855 21 270 11.3 16.1 0.00 0.00 0.00 63
20260503004652 21 278 11.3 16.1 0.00 0.00 0.00 63
20260503004450 21 260 8.0 16.1 0.00 0.00 0.00 62
20260503004248 21 270 16.1 16.1 0.00 0.00 0.00 62
20260503004045 21 255 6.4 16.1 0.00 0.00 0.00 62
20260503003844 21 278 6.4 16.1 0.00 0.00 0.00 61
20260503003643 21 260 9.7 20.9 0.00 0.00 0.00 62
20260503003440 21 278 4.8 20.9 0.00 0.00 0.00 62
20260503003037 21 251 11.3 14.5 0.00 0.00 0.00 61
20260503002835 22 271 14.5 14.5 0.00 0.00 0.00 61
20260503002633 21 275 9.7 14.5 0.00 0.00 0.00 61
20260503002429 22 265 12.9 14.5 0.00 0.00 0.00 61
20260503002229 22 284 9.7 16.1 0.00 0.00 0.00 60
20260503002027 22 277 11.3 16.1 0.00 0.00 0.00 61
20260503001825 21 251 8.0 16.1 0.00 0.00 0.00 61
20260503001623 21 255 9.7 17.7 0.00 0.00 0.00 60
20260503001421 21 275 11.3 17.7 0.00 0.00 0.00 61
20260503001219 22 262 14.5 19.3 0.00 0.00 0.00 61
20260503001015 21 275 16.1 19.3 0.00 0.00 0.00 60
20260503000814 21 270 14.5 16.1 0.00 0.00 0.00 60
20260503000614 22 258 11.3 16.1 0.00 0.00 0.00 60
20260503000409 22 261 17.7 16.1 0.00 0.00 0.00 60
20260503000007 21 268 11.3 19.3 0.00 0.00 0.00 60
20260502235805 22 267 14.5 16.1 0.00 0.00 0.00 59
20260502235603 22 268 14.5 16.1 0.00 0.00 0.00 58
20260502235159 22 271 11.3 12.9 0.00 0.00 0.00 58
20260502234957 22 258 8.0 12.9 0.00 0.00 0.00 59
20260502234755 22 250 9.7 14.5 0.00 0.00 0.00 60
20260502234553 22 274 9.7 14.5 0.00 0.00 0.00 59
20260502234351 22 268 8.0 14.5 0.00 0.00 0.00 61
20260502234150 21 306 1.6 16.1 0.00 0.00 0.00 62
20260502233946 21 267 11.3 16.1 0.00 0.00 0.00 61
20260502233745 21 250 12.9 14.5 0.00 0.00 0.00 61
20260502233543 21 271 12.9 14.5 0.00 0.00 0.00 61
20260502233341 21 246 1.6 14.5 0.00 0.00 0.00 61
20260502232937 21 296 6.4 16.1 0.00 0.00 0.00 61
20260502232735 21 267 8.0 17.7 0.00 0.00 0.00 61
20260502232534 21 274 11.3 17.7 0.00 0.00 0.00 61
20260502232331 21 278 11.3 17.7 0.00 0.00 0.00 61
20260502232130 21 286 11.3 16.1 0.00 0.00 0.00 61
20260502231926 21 264 11.3 16.1 0.00 0.00 0.00 61
20260502231524 21 219 4.8 19.3 0.00 0.00 0.00 62
20260502231120 21 258 16.1 14.5 0.00 0.00 0.00 60
20260502230918 22 265 14.5 14.5 0.00 0.00 0.00 59
20260502230716 22 250 9.7 16.1 0.00 0.00 0.00 60
20260502230514 22 247 12.9 16.1 0.00 0.00 0.00 60
20260502230312 21 257 11.3 19.3 0.00 0.00 0.00 61
20260502230110 21 196 1.6 19.3 0.00 0.00 0.00 61
20260502225906 21 258 9.7 19.3 0.00 0.00 0.00 62
20260502225504 21 258 14.5 22.5 0.00 0.00 0.00 62
20260502225304 21 274 11.3 19.3 0.00 0.00 0.00 61
20260502225058 21 262 12.9 19.3 0.00 0.00 0.00 61
20260502224858 21 227 11.3 19.3 0.00 0.00 0.00 61
20260502224656 21 272 11.3 17.7 0.00 0.00 0.00 61
20260502224252 21 279 6.4 22.5 0.00 0.00 0.00 62
20260502223848 21 274 12.9 22.5 0.00 0.00 0.00 61
20260502223646 21 262 12.9 20.9 0.00 0.00 0.00 63
20260502223443 21 260 12.9 20.9 0.00 0.00 0.00 62
20260502223243 21 250 17.7 22.5 0.00 0.00 0.00 62
20260502223041 21 264 11.3 22.5 0.00 0.00 0.00 62
20260502222838 21 253 14.5 22.5 0.00 0.00 0.00 62
20260502222637 21 277 16.1 22.5 0.00 0.00 0.00 61
20260502222434 22 284 9.7 22.5 0.00 0.00 0.00 59
20260502222233 22 298 1.6 20.9 0.00 0.00 0.00 61
20260502222029 21 267 14.5 20.9 0.00 0.00 0.00 62
20260502221827 21 260 19.3 20.9 0.00 0.00 0.00 60
20260502221627 21 237 14.5 22.5 0.00 0.00 0.00 62
20260502221425 21 251 17.7 22.5 0.00 0.00 0.00 61
20260502221223 22 274 22.5 24.1 0.00 0.00 0.00 61
20260502221021 22 201 6.4 24.1 0.00 0.00 0.00 62
20260502220819 21 261 17.7 22.5 0.00 0.00 0.00 61
20260502220617 21 271 11.3 22.5 0.00 0.00 0.00 62
20260502220415 21 260 17.7 22.5 0.00 0.00 0.00 61
20260502220213 21 285 14.5 22.5 0.00 0.00 0.00 60
20260502220011 22 251 17.7 22.5 0.00 0.00 0.00 62
20260502215809 22 254 14.5 22.5 0.00 0.00 0.00 61
20260502215607 21 272 8.0 22.5 0.00 0.00 0.00 61
20260502215405 22 254 16.1 22.5 0.00 0.00 0.00 61
20260502215203 22 262 17.7 19.3 0.00 0.00 0.00 60
20260502214800 22 258 4.8 19.3 0.00 0.00 0.00 60
20260502214356 22 257 6.4 19.3 0.00 0.00 0.00 61
20260502214152 22 244 11.3 24.1 0.00 0.00 0.00 61
20260502213748 22 255 12.9 20.9 0.00 0.00 0.00 61
20260502213346 22 229 20.9 20.9 0.00 0.00 0.00 60
20260502213144 22 260 14.5 27.4 0.00 0.00 0.00 60
20260502212942 22 247 9.7 27.4 0.00 0.00 0.00 61
20260502212740 22 264 14.5 24.1 0.00 0.00 0.00 60
20260502212334 22 255 25.7 24.1 0.00 0.00 0.00 59
20260502211932 22 274 19.3 25.7 0.00 0.00 0.00 60
20260502211730 22 268 14.5 22.5 0.00 0.00 0.00 60
20260502211528 22 244 19.3 22.5 0.00 0.00 0.00 60
20260502211326 22 268 17.7 22.5 0.00 0.00 0.00 59
20260502211124 22 289 12.9 22.5 0.00 0.00 0.00 59
20260502210921 22 278 9.7 22.5 0.00 0.00 0.00 58
20260502210720 22 239 4.8 25.7 0.00 0.00 0.00 59
20260502210518 22 277 11.3 25.7 0.00 0.00 0.00 59
20260502210316 22 258 19.3 19.3 0.00 0.00 0.00 58
20260502210114 22 201 8.0 19.3 0.00 0.00 0.00 59
20260502205912 22 253 14.5 19.3 0.00 0.00 0.00 59
20260502205709 22 267 12.9 24.1 0.00 0.00 0.00 58
20260502205509 22 250 14.5 24.1 0.00 0.00 0.00 59
20260502205307 22 246 16.1 22.5 0.00 0.00 0.00 59
20260502205105 22 282 16.1 22.5 0.00 0.00 0.00 59
20260502204903 22 270 6.4 22.5 0.00 0.00 0.00 59
20260502204701 22 282 12.9 22.5 0.00 0.00 0.00 58
20260502204255 23 265 12.9 22.5 0.00 0.00 0.00 59
20260502204055 22 180 4.8 22.5 0.00 0.00 0.00 59
20260502203853 22 275 11.3 22.5 0.00 0.00 0.00 59
20260502203247 22 255 12.9 20.9 0.00 0.00 0.00 59
20260502202843 22 270 8.0 20.9 0.00 0.00 0.00 60
20260502202640 22 264 17.7 20.9 0.00 0.00 0.00 60
20260502202439 22 268 14.5 20.9 0.00 0.00 0.00 59
20260502202035 22 262 9.7 17.7 0.00 0.00 0.00 59
20260502201834 22 275 11.3 17.7 0.00 0.00 0.00 58
20260502201632 22 281 8.0 24.1 0.00 0.00 0.00 57
20260502201227 22 264 9.7 22.5 0.00 0.00 0.00 58
20260502201026 22 261 16.1 22.5 0.00 0.00 0.00 57
20260502200826 23 260 16.1 17.7 0.00 0.00 0.00 57
20260502200622 23 282 1.6 17.7 0.00 0.00 0.00 57
20260502200420 23 278 8.0 17.7 0.00 0.00 0.00 56
20260502200218 23 261 9.7 17.7 0.00 0.00 0.00 56
20260502195814 23 257 8.0 19.3 0.00 0.00 0.00 56
20260502195612 23 264 12.9 19.3 0.00 0.00 0.00 57
20260502195410 23 268 1.6 19.3 0.00 0.00 0.00 57
20260502195208 23 272 12.9 16.1 0.00 0.00 0.00 57
20260502195006 22 267 11.3 16.1 0.00 0.00 0.00 58
20260502194804 22 243 11.3 16.1 0.00 0.00 0.00 58
20260502194602 22 277 9.7 16.1 0.00 0.00 0.00 57
20260502194158 22 286 8.0 16.1 0.00 0.00 0.00 59
20260502193351 22 260 3.2 12.9 0.00 0.00 0.00 59
20260502193149 22 284 11.3 19.3 0.00 0.00 0.00 59
20260502192947 22 271 8.0 19.3 0.00 0.00 0.00 61
20260502192744 21 265 12.9 17.7 0.00 0.00 0.00 61
20260502192542 21 268 12.9 17.7 0.00 0.00 0.00 61
20260502192340 21 189 3.2 17.7 0.00 0.00 0.00 62
20260502192139 21 265 3.2 19.3 0.00 0.00 0.00 63
20260502191937 21 274 14.5 19.3 0.00 0.00 0.00 62
20260502191733 21 274 12.9 20.9 0.00 0.00 0.00 63
20260502191531 21 274 11.3 20.9 0.00 0.00 0.00 62
20260502191331 21 275 11.3 20.9 0.00 0.00 0.00 64
20260502191129 21 296 9.7 19.3 0.00 0.00 0.00 63
20260502190927 21 274 9.7 19.3 0.00 0.00 0.00 64
20260502190725 21 232 12.9 20.9 0.00 0.00 0.00 64
20260502190523 21 279 11.3 20.9 0.00 0.00 0.00 66
20260502185917 21 274 8.0 19.3 0.00 0.00 0.00 65
20260502185513 21 262 11.3 17.7 0.00 0.00 0.00 66
20260502185109 21 262 14.5 16.1 0.00 0.00 0.00 67
20260502184504 20 282 11.3 16.1 0.00 0.00 0.00 67
20260502184301 20 262 8.0 17.7 0.00 0.00 0.00 67
20260502183654 20 255 9.7 19.3 0.00 0.00 0.00 68
20260502183453 20 258 12.9 19.3 0.00 0.00 0.00 68
20260502183251 20 257 8.0 12.9 0.00 0.00 0.00 68
20260502183050 20 286 9.7 12.9 0.00 0.00 0.00 66
20260502182646 21 271 3.2 9.7 0.00 0.00 0.00 67
20260502182444 21 300 0.0 9.7 0.00 0.00 0.00 68
20260502182242 20 248 1.6 8.0 0.00 0.00 0.00 67
20260502182040 20 210 9.7 8.0 0.00 0.00 0.00 67
20260502181838 20 122 1.6 8.0 0.00 0.00 0.00 69
20260502181637 20 133 6.4 8.0 0.00 0.00 0.00 68
20260502181232 20 119 3.2 1.6 0.00 0.00 0.00 72
20260502181031 20 116 1.6 1.6 0.00 0.00 0.00 72
20260502180828 19 90 0.0 1.6 0.00 0.00 0.00 75
20260502180626 19 90 0.0 8.0 0.00 0.00 0.00 77
20260502180425 18 150 0.0 8.0 0.00 0.00 0.00 76
20260502180223 18 178 4.8 3.2 0.00 0.00 0.00 74
20260502170328 15 278 8.0 14.5 0.00 0.00 0.00 87
20260502170126 15 292 6.4 14.5 0.00 0.00 0.00 87
20260502164309 15 274 8.0 14.5 0.00 0.00 0.00 90
20260502164107 15 310 4.8 14.5 0.00 0.00 0.00 90
20260502163905 15 255 11.3 14.5 0.00 0.00 0.00 91
20260502163703 15 270 9.7 16.1 0.00 0.00 0.00 91
20260502163501 14 300 9.7 16.1 0.00 0.00 0.00 91
20260502163259 14 282 11.3 16.1 0.00 0.00 0.00 90
20260502162855 15 285 11.3 16.1 0.00 0.00 0.00 91
20260502162653 15 274 8.0 12.9 0.00 0.00 0.00 93
20260502162451 14 278 8.0 12.9 0.00 0.00 0.00 94
20260502162250 14 293 4.8 14.5 0.00 0.00 0.00 94
20260502162046 14 291 9.7 14.5 0.00 0.00 0.00 94
20260502161846 13 317 4.8 14.5 0.00 0.00 0.00 94
20260502161039 13 275 11.3 14.5 0.00 0.00 0.00 95
20260502160835 13 275 12.9 14.5 0.00 0.00 0.00 95
20260502160635 13 284 9.7 16.1 0.00 0.00 0.00 95
20260502160433 13 281 9.7 16.1 0.00 0.00 0.00 95
20260502160230 13 285 9.7 17.7 0.00 0.00 0.00 95
20260502152153 13 208 0.0 4.8 0.00 0.00 0.00 97
20260502151951 13 157 0.0 4.8 0.00 0.00 0.00 97
20260502151747 13 185 4.8 6.4 0.00 0.00 0.00 97
20260502151547 13 177 3.2 6.4 0.00 0.00 0.00 97
20260502151346 13 184 0.0 6.4 0.00 0.00 0.00 97
20260502150740 12 137 4.8 11.3 0.00 0.00 0.00 97
20260502150538 12 157 4.8 11.3 0.00 0.00 0.00 97
20260502150134 12 180 4.8 11.3 0.00 0.00 0.00 97
20260502130747 11 296 0.0 0.0 0.00 0.00 0.00 96
20260502130546 11 296 0.0 0.0 0.00 0.00 0.00 96
20260502130344 11 296 0.0 0.0 0.00 0.00 0.00 96
20260502123718 10 296 0.0 0.0 0.00 0.00 0.00 96
20260502123517 10 296 0.0 0.0 0.00 0.00 0.00 96
20260502123315 10 296 0.0 0.0 0.00 0.00 0.00 96
20260502123113 10 296 0.0 0.0 0.00 0.00 0.00 96
20260502122911 10 296 0.0 0.0 0.00 0.00 0.00 96
20260502122707 10 296 0.0 0.0 0.00 0.00 0.00 96
20260502122508 10 296 0.0 0.0 0.00 0.00 0.00 96
20260502122306 10 296 0.0 0.0 0.00 0.00 0.00 96
20260502122102 10 296 0.0 0.0 0.00 0.00 0.00 96
20260502121900 10 296 0.0 0.0 0.00 0.00 0.00 96
20260502121700 11 296 0.0 0.0 0.00 0.00 0.00 96
20260502121458 11 296 0.0 0.0 0.00 0.00 0.00 96
20260502121256 11 296 0.0 0.0 0.00 0.00 0.00 96
20260502121054 11 296 0.0 0.0 0.00 0.00 0.00 96
20260502120851 11 296 0.0 0.0 0.00 0.00 0.00 96
20260502120651 11 296 0.0 0.0 0.00 0.00 0.00 96
20260502120448 11 296 0.0 0.0 0.00 0.00 0.00 96
20260502120246 11 296 0.0 6.4 0.00 0.00 0.00 96
20260502115843 11 296 0.0 6.4 0.00 0.00 0.00 96
20260502115641 11 313 3.2 4.8 0.00 0.00 0.00 96
20260502115439 11 317 4.8 4.8 0.00 0.00 0.00 96
20260502115237 11 309 1.6 3.2 0.00 0.00 0.00 96
20260502115034 11 303 0.0 3.2 0.00 0.00 0.00 96
20260502114833 11 303 0.0 3.2 0.00 0.00 0.00 96
20260502114631 11 261 0.0 0.0 0.00 0.00 0.00 96
20260502114429 11 261 0.0 0.0 0.00 0.00 0.00 96
20260502114227 11 261 0.0 0.0 0.00 0.00 0.00 96
20260502114026 11 261 0.0 0.0 0.00 0.00 0.00 96
20260502113824 11 261 0.0 0.0 0.00 0.00 0.00 96
20260502113621 11 261 0.0 0.0 0.00 0.00 0.00 96
20260502113420 11 261 0.0 0.0 0.00 0.00 0.00 96
20260502113218 11 261 0.0 0.0 0.00 0.00 0.00 96
20260502113016 11 261 0.0 0.0 0.00 0.00 0.00 96
20260502112814 11 261 0.0 0.0 0.00 0.00 0.00 96
20260502112612 11 261 0.0 0.0 0.00 0.00 0.00 96
20260502112410 11 261 0.0 0.0 0.00 0.00 0.00 96
20260502112007 11 261 0.0 0.0 0.00 0.00 0.00 95
20260502111805 11 261 0.0 0.0 0.00 0.00 0.00 95
20260502111603 11 261 0.0 0.0 0.00 0.00 0.00 95
20260502111400 11 261 0.0 0.0 0.00 0.00 0.00 95
20260502111159 11 261 0.0 0.0 0.00 0.00 0.00 95
20260502110957 11 261 0.0 0.0 0.00 0.00 0.00 96
20260502110755 11 261 0.0 0.0 0.00 0.00 0.00 95
20260502110553 11 261 0.0 0.0 0.00 0.00 0.00 95
20260502110351 11 261 0.0 0.0 0.00 0.00 0.00 95
20260502110149 11 261 0.0 0.0 0.00 0.00 0.00 95
20260502105947 11 261 0.0 0.0 0.00 0.00 0.00 95
20260502105746 11 261 0.0 0.0 0.00 0.00 0.00 95
20260502105544 11 261 0.0 0.0 0.00 0.00 0.00 95
20260502105341 11 261 0.0 0.0 0.00 0.00 0.00 95
20260502105140 11 261 0.0 0.0 0.00 0.00 0.00 95
20260502104936 11 261 0.0 0.0 0.00 0.00 0.00 95
20260502104534 11 261 0.0 0.0 0.00 0.00 0.00 95
20260502104335 11 261 0.0 0.0 0.00 0.00 0.00 95
20260502104130 11 261 0.0 0.0 0.00 0.00 0.00 95
20260502103726 11 261 0.0 0.0 0.00 0.00 0.00 95
20260502103525 11 261 0.0 0.0 0.00 0.00 0.00 95
20260502103323 11 261 0.0 0.0 0.00 0.00 0.00 95
20260502103121 11 261 0.0 0.0 0.00 0.00 0.00 95
20260502102919 11 261 0.0 0.0 0.00 0.00 0.00 95
20260502102718 11 261 0.0 0.0 0.00 0.00 0.00 95
20260502102515 11 261 0.0 0.0 0.00 0.00 0.00 95
20260502102312 11 261 0.0 0.0 0.00 0.00 0.00 95
20260502102111 11 261 0.0 0.0 0.00 0.00 0.00 95
20260502101909 11 261 0.0 0.0 0.00 0.00 0.00 95
20260502101708 11 261 0.0 0.0 0.00 0.00 0.00 95
20260502101505 11 261 0.0 0.0 0.00 0.00 0.00 95
20260502101304 11 261 0.0 0.0 0.00 0.00 0.00 95
20260502101101 11 261 0.0 0.0 0.00 0.00 0.00 95
20260502100858 11 261 0.0 0.0 0.00 0.00 0.00 95
20260502100658 11 261 0.0 0.0 0.00 0.00 0.00 95
20260502100456 11 261 0.0 0.0 0.00 0.00 0.00 95
20260502091408 12 261 0.0 0.0 0.00 0.00 0.00 95
20260502091206 12 261 0.0 0.0 0.00 0.00 0.00 95
20260502090803 12 261 0.0 0.0 0.00 0.00 0.00 95
20260502090601 12 261 0.0 0.0 0.00 0.00 0.00 95
20260502090359 12 261 0.0 0.0 0.00 0.00 0.00 95
20260502090157 12 261 0.0 0.0 0.00 0.00 0.00 95
20260502071416 12 261 0.0 0.0 0.00 0.00 0.00 93
20260502071214 12 261 0.0 0.0 0.00 0.00 0.00 93
20260502071012 12 261 0.0 0.0 0.00 0.00 0.00 93
20260502070810 12 261 0.0 0.0 0.00 0.00 0.00 93
20260502070608 12 261 0.0 0.0 0.00 0.00 0.00 93
20260502070406 12 261 0.0 0.0 0.00 0.00 0.00 93
20260502070204 12 261 0.0 0.0 0.00 0.00 0.00 93
20260502065800 12 261 0.0 0.0 0.00 0.00 0.00 93
20260502065357 12 261 0.0 0.0 0.00 0.00 0.00 93
20260502065155 12 261 0.0 0.0 0.00 0.00 0.00 93
20260502064953 12 261 0.0 0.0 0.00 0.00 0.00 93
20260502064751 12 261 0.0 0.0 0.00 0.00 0.00 93